Overview Statistics Trail Chart Weather Telemetry Raw packets
 

This is the latest recevied weather packets stored in our database for station/object K6LOT-13. If no packets are shown the sender has not sent any weather packets the latest 10 day(s).

<< 62 63 64 65 66 67 68 >>
Time Temp. Humidity Pressure Rain* Wind** Luminosity Snow
1788116819 32.78° C 50% 1013.8 hPa 0 mm - - -
1788116407 32.78° C 49% 1013.8 hPa 0 mm - - -
1788115866 32.22° C 49% 1013.7 hPa 0 mm - - -
1788115560 32.22° C 50% 1013.8 hPa 0 mm - - -
1788115254 31.67° C 50% 1013.9 hPa 0 mm - - -
1788114947 31.67° C 52% 1013.8 hPa 0 mm - - -
1788114594 31.11° C 53% 1013.9 hPa 0 mm - - -
1788114030 30.56° C 54% 1014 hPa 0 mm - - -
1788113981 30.56° C 55% 1014.1 hPa 0 mm - - -
1788113413 30.56° C 55% 1014.1 hPa 0 mm - - -
1788113094 30.56° C 56% 1014 hPa 0 mm - - -
1788112788 30° C 57% 1014 hPa 0 mm - - -
1788112478 30° C 57% 1014 hPa 0 mm - - -
1788112172 30° C 58% 1014.1 hPa 0 mm - - -
1788112096 29.44° C 60% 1014.1 hPa 0 mm - - -
1788111678 29.44° C 61% 1014.1 hPa 0 mm - - -
1788110930 28.33° C 65% 1014 hPa 0 mm - - -
1788110869 27.78° C 65% 1014.1 hPa 0 mm - - -
1788110313 27.22° C 66% 1014 hPa 0 mm - - -
1788110007 26.67° C 69% 1014 hPa 0 mm - - -
1788109697 26.11° C 70% 1013.9 hPa 0 mm - - -
1788109393 25.56° C 71% 1013.9 hPa 0 mm - - -
1788109080 25° C 72% 1014 hPa 0 mm - - -
1788108774 25° C 72% 1013.9 hPa 0 mm - - -
1788108553 24.44° C 73% 1014 hPa 0 mm - - -

* Rain latest hour (hover to see other rain measurements)
** Current wind speed in m/s (hover to see current wind gust speed)